Location: Oklahoma City
(35.4680°N, 97.5160°W)
Time: 08:06:20
(UTC-05:00)

ISS - All Passes

Search period start: 30 April 2016 00:00
Search period end: 10 May 2016 00:00
Orbit: 402 x 405 km, 51.6° (Epoch: 29 April)

Date Brightness Start Highest point End Pass type
(mag) Time Alt. Az. Time Alt. Az. Time Alt. Az.
30 Apr - 08:51:20 10° SW 08:54:36 86° NW 08:57:52 10° NE daylight
30 Apr - 10:30:02 10° NW 10:31:29 12° NNW 10:32:56 10° N daylight
30 Apr - 15:21:48 10° NNW 15:24:40 28° NE 15:27:32 10° E daylight
30 Apr - 16:58:22 10° WNW 17:01:02 23° SW 17:03:42 10° S daylight
01 May - 07:59:06 10° SSW 08:02:11 41° SE 08:05:17 10° ENE daylight
01 May - 09:36:21 10° W 09:38:46 19° NNW 09:41:13 10° NNE daylight
01 May - 14:29:47 10° NNW 14:32:01 17° NNE 14:34:15 10° ENE daylight
01 May - 16:05:30 10° WNW 16:08:41 51° SW 16:11:52 10° SSE daylight
02 May - 07:07:27 10° S 07:09:52 19° SE 07:12:17 10° E daylight
02 May - 08:43:10 10° WSW 08:46:09 32° NW 08:49:08 10° NNE daylight
02 May - 13:38:15 10° N 13:39:17 11° NNE 13:40:19 10° NE daylight
02 May - 15:13:00 10° NW 15:16:15 70° NE 15:19:30 10° SE daylight
03 May - 07:50:23 10° SW 07:53:37 66° NW 07:56:52 10° NE daylight
03 May - 09:29:42 10° NW 09:30:36 11° NNW 09:31:30 10° N daylight
03 May - 14:20:41 10° NNW 14:23:43 34° NE 14:26:43 10° ESE daylight
03 May - 15:57:37 10° W 16:00:00 18° SW 16:02:20 10° S daylight
04 May - 06:57:58 10° SSW 07:01:09 54° SE 07:04:21 10° ENE daylight
04 May - 08:35:40 10° WNW 08:37:50 16° NNW 08:40:00 10° NNE daylight
04 May - 13:28:35 10° NNW 13:31:05 20° NNE 13:33:33 10° E daylight
04 May - 15:04:34 10° WNW 15:07:38 39° SW 15:10:42 10° SSE daylight
05 May - 06:06:03 10° S 06:08:45 25° SE 06:11:30 10° ENE visible
05 May - 07:42:19 10° W 07:45:09 27° NW 07:48:00 10° NNE daylight
05 May - 12:36:47 10° N 12:38:20 13° NNE 12:39:52 10° NE daylight
05 May - 14:11:55 10° NW 14:15:12 90° SW 14:18:27 10° SE daylight
06 May - 05:15:09 10° SSE 05:16:27 12° SE 05:17:45 10° ESE visible
06 May - 06:49:22 10° WSW 06:52:33 51° NW 06:55:45 10° NE daylight
06 May - 13:19:32 10° NW 13:22:40 42° NE 13:25:47 10° ESE daylight
06 May - 14:56:56 10° W 14:58:50 15° SW 15:00:44 10° SSW daylight
07 May - 05:56:48 10° SW 06:00:01 72° SE 06:03:17 10° NE visible
07 May - 07:34:57 10° WNW 07:36:49 14° NNW 07:38:41 10° N daylight
07 May - 12:27:20 10° NNW 12:30:01 23° NNE 12:32:42 10° E daylight
07 May - 14:03:34 10° WNW 14:06:29 30° SW 14:09:23 10° SSE daylight
08 May - 05:04:39 10° SSW 05:07:35 31° SE 05:10:32 10° ENE visible
08 May - 06:41:25 10° W 06:44:04 23° NNW 06:46:44 10° NNE daylight
08 May - 11:35:22 10° N 11:37:17 14° NNE 11:39:12 10° ENE daylight
08 May - 13:10:48 10° NW 13:14:03 69° SW 13:17:16 10° SE daylight
09 May - 04:13:15 10° SSE 04:15:13 15° SE 04:17:12 10° E visible
09 May - 05:48:18 10° WSW 05:51:24 40° NW 05:54:32 10° NE visible
09 May - 12:18:18 10° NW 12:21:31 53° NE 12:24:42 10° ESE daylight
09 May - 13:56:26 10° WSW 13:57:36 11° SW 13:58:45 10° SSW daylight
